Torna al catalogo

STARLINK-5574

AttivoComunicazioniVLEO
NORAD 55362·PAYLOAD·🇺🇸 United States

Lanciato Jan 26, 2023 da Cape Canaveral Space Force Station

Loading…

Prossimi Passaggi (prossime 24 ore)

TLE

AggiornatoSource: CelesTrak SupGP

Epoca: Sep 15, 2026, 02:25 UTC

1 55362C 23013AH  26258.10118056  .00027438  00000+0  99384-3 0  2582
2 55362  43.0034 298.8230 0001560 297.3694  58.8252 15.27562943    16

Traccia STARLINK-5574 in tempo reale con AllMySat

Download on the App Store